Probability
0 0 0 0 0 0 0 0 0 0 0 0 0 0 0 0 0 0 0 0 0 0 0 0 0 0 0 0 0 0 0 0 0 0 0 0 0 0 0 0 0 0 0 0
0 0 0 0 0 0 0 0 0 0 0 0 0 0 0 0 0 0 0 0 0 0 0 0 0 0 0 0 0 0 0 0 0 0 0 0 0 0 0 0 0 0 0 0
0 0 0 0 0 0 0 0 0 0 0 0 0 0 0 0 0 0 0 0 0 0 0 0 0 0 0 0 0 0 0 0 0 0 0 0 0 0 0 0 0 0 0 0
0 0 0 0 0 0 0 0 0 0 0 0 0 0 0 0 0 0 0 0 0 0 0 0 0 0 0 0 0 0 0 0 0 0 0 0 0 0 0 0 0 0 0 0
0 0 0 0 0 0 0 0 0 0 0 0 0 0 0 0 0 0 0 0 0 0 0 0 0 0 0 0 0 0 0 0 0 0 0 0 0 0 0 0 0 0 0 0
0 0 0 0 0 0 0 0 0 0 0 0 0 0 0 0 0 0 0 0 0 0 0 0 0 0 0 0 0 0 0 0 0 0 0 0 0 0 0 0 0 0 0 0
0 0 0 0 0 0 0 0 0 0 0 0 0 0 0 0 0 0 0 0 0 0 0 0 0 0 0 0 0 0 0 0 0 0 0 0 0 0 0 0 0 0 0 0
0 0 0 0 0 0 0 0 0 0 0 0 0 0 0 0 0 0 0 0 0 0 0 0 0 0 0 0 0 0 0 0 0 0 0 0 0 0 0 0 0 0 0 0
0 0 0 0 0 0 0 0 0 0 0 0 0 0 0 0 0 0 0 0 0 0 0 0 0 0 0 0 0 0 0 0 0 0 0 0 0 0 0 0 0 0 0 0
0 0 0 0 0 0 0 0 0 0 0 0 0 0 0 0 0 0 0 0 0 0 0 0 0 0 0 0 0 0 0 0 0 0 0 0 0 0 0 0 0 0 0 0
0 0 0 0 0 0 0 0 0 0 0 0 0 0 0 0 0 0 0 0 0 0 0 0 0 0 0 0 0 0 0 0 0 0 0 0 0 0 0 0 0 0 0 0
0 0 0 0 0 0 0 0 0 0 0 0 0 0 0 0 0 0 0 0 0 0 0 0 0 0 0 0 0 0 0 0 0 0 0 0 0 0 0 0 0 0 0 0
0 0 0 0 0 0 0 0 0 0 0 0 0 0 0 0 0 0 0 0 0 0 0 0 0 0 0 0 0 0 0 0 0 0 0 0 0 0 0 0 0 0 0 0
0 0 0 0 0 0 0 0 0 0 0 0 0 0 0 0 0 0 0 0 0 0 0 0 0 0 0 0 0 0 0 0 0 0 0 0 0 0 0 0 0 0 0 0
0 0 0 0 0 0 0 0 0 0 0 0 0 0 0 0 0 0 0 0 0 0 0 0 0 0 0 0 0 0 0 0 0 0 0 0 0 0 0 0 0 0 0 0
0 0 0 0 0 0 0 0 0 0 0 0 0 0 0 0 0 0 0 0 0 0 0 0 0 0 0 0 0 0 0 0 0 0 0 0 0 0 0 0 0 0 0 0
0 0 0 0 0 0 0 0 0 0 0 0 0 0 0 0 0 0 0 0 0 0 0 0 0 0 0 0 0 0 0 0 0 0 0 0 0 0 0 0 0 0 0 0
0 0 0 0 0 0 0 0 0 0 0 0 0 0 0 0 0 0 0 0 0 0 0 0 0 0 0 0 0 0 0 0 0 0 0 0 0 0 0 0 0 0 0 0
0 0 0 0 0 0 0 0 0 0 0 0 0 0 0 0 0 0 0 0 0 0 0 0 0 0 0 0 0 0 0 0 0 0 0 0 0 0 0 0 0 0 0 0
0 0 0 0 0 0 0 0 0 0 0 0 0 0 0 0 0 0 0 0 0 0 0 0 0 0 0 0 0 0 0 0 0 0 0 0 0 0 0 0 0 0 0 0
0 0 0 0 0 0 0 0 0 0 0 0 0 0 0 0 0 0 0 0 0 0 0 0 0 0 0 0 0 0 0 0 0 0 0 0 0 0 0 0 0 0 0 0
0 0 0 0 0 0 0 0 0 0 0 0 0 0 0 0 0 0 0 0 0 0 0 0 0 0 0 0 0 0 0 0 0 0 0 0 0 0 0 0 0 0 0 0
0 0 0 0 0 0 0 0 0 0 0 0 0 0 0 0 0 0 0 0 0 0 0 0 0 0 0 0 0 0 0 0 0 0 0 0 0 0 0 0 0 0 0 0
0 0 0 0 0 0 0 0 0 0 0 0 0 0 0 0 0 0 0 0 0 0 0 0 0 0 0 0 0 0 0 0 0 0 0 0 0 0 0 0 0 0 0 0
0 0 0 0 0 0 0 0 0 0 0 0 0 0 0 0 0 0 0 0 0 0 0 0 0 0 0 0 0 0 0 0 0 0 0 0 0 0 0 0 0 0 0 0
0 0 0 0 0 0 0 0 0 0 0 0 0 0 0 0 0 0 0 0 0 0 0 0 0 0 0 0 0 0 0 0 0 0 0 0 0 0 0 0 0 0 0 0
0 0 0 0 0 0 0 0 0 0 0 0 0 0 0 0 0 0 0 0 0 0 0 0 0 0 0 0 0 0 0 0 0 0 0 0 0 0 0 0 0 0 0 0
Wind_Speed
7 8 6 6 7 7 8 8 7 8 9 8 5 4 3 2 2 3 3 3 3 3 3 3 3 3 3 2 2 2 2 2 2 2 2 2 1 1 1 1 1 1 1 1
5 6 6 8 8 9 9 8 9 10 11 7 5 3 3 3 2 2 3 4 3 3 4 4 4 3 3 3 2 2 2 2 2 2 2 2 1 1 0 1 1 1 1 1
4 3 4 8 8 9 7 7 6 9 9 5 4 4 5 3 2 2 3 3 4 4 4 4 4 3 3 3 2 1 1 2 1 2 2 2 1 1 0 1 1 1 1 1
3 3 6 6 2 5 7 7 6 6 6 5 4 4 4 1 2 3 3 4 4 4 4 4 3 3 2 2 1 1 1 2 2 2 2 2 1 1 0 0 0 0 1 1
2 4 8 4 2 1 3 5 5 6 6 5 4 4 3 2 2 2 3 3 3 3 4 4 4 3 2 1 1 1 2 2 2 1 2 1 1 1 0 0 0 0 0 1
2 3 6 3 0 0 1 5 2 1 3 3 3 3 4 4 4 3 3 3 3 3 3 3 4 3 1 1 1 2 2 2 2 1 1 2 1 1 1 1 0 0 0 1
5 5 7 2 1 2 2 5 2 1 1 1 2 4 4 4 4 3 3 3 3 3 3 3 3 3 2 1 2 2 2 2 2 2 2 2 2 1 1 1 1 1 1 1
4 6 8 2 3 4 5 2 2 2 1 2 3 3 3 4 3 3 3 3 3 3 3 3 3 3 2 2 2 2 2 2 2 2 2 2 1 1 1 1 1 1 1 1
7 8 3 4 4 3 1 2 2 2 2 2 3 3 3 3 3 3 3 3 3 3 4 3 3 3 3 3 2 2 2 1 1 2 2 1 1 1 1 1 1 0 0 1
5 7 5 4 4 3 3 3 3 2 2 2 3 3 3 3 3 3 3 3 3 3 3 4 3 3 3 3 2 2 2 2 1 1 1 2 1 1 1 1 0 0 0 0
8 8 5 5 5 4 2 2 2 2 2 2 2 3 3 3 3 3 3 2 2 3 3 4 3 3 3 2 2 2 2 1 1 1 1 1 2 1 1 1 1 0 0 1
8 6 5 5 3 2 3 4 3 2 3 3 2 3 3 3 3 2 2 2 2 3 3 3 3 3 3 2 2 1 2 1 1 1 1 1 2 2 4 3 4 3 3 1
7 5 4 4 3 3 3 3 2 3 3 3 3 3 3 3 3 2 2 2 3 3 3 3 2 2 2 3 2 2 2 1 1 1 1 1 1 1 2 3 4 4 4 3
5 3 4 4 3 3 3 3 2 2 3 3 3 2 2 2 2 2 3 3 3 2 2 2 2 2 2 2 2 2 2 2 2 1 1 1 1 1 1 1 1 2 3 3
5 4 5 3 3 3 2 2 2 3 3 2 2 2 2 2 3 3 2 2 2 2 2 2 2 2 2 2 2 2 2 1 1 1 1 1 1 1 1 1 1 1 2 2
4 3 4 4 4 4 3 3 4 4 3 3 2 2 2 2 2 2 2 1 1 2 2 2 2 2 2 2 2 1 1 2 2 1 1 1 1 1 1 1 1 1 1 1
4 5 5 5 5 5 5 4 4 4 3 3 3 2 2 1 1 2 2 1 1 2 1 1 2 2 2 1 1 1 1 1 1 1 1 1 1 1 1 1 1 1 1 1
6 6 5 5 5 5 4 4 4 3 3 3 2 2 2 2 3 3 2 1 1 1 1 1 1 1 1 1 1 1 1 0 0 0 1 1 1 1 1 1 1 1 1 1
4 4 4 4 4 3 4 4 3 3 2 2 3 3 3 3 2 2 1 1 1 2 2 1 1 0 0 1 1 1 1 1 0 0 0 1 1 1 0 0 1 1 1 1
2 2 2 2 2 2 3 3 2 2 2 3 3 2 2 2 2 1 1 2 2 2 1 0 0 0 0 0 1 0 0 0 0 0 0 0 0 0 0 0 0 0 0 0
2 2 2 2 2 2 2 3 3 3 3 3 4 3 3 2 2 1 1 2 2 1 1 1 0 0 0 1 0 0 0 0 0 0 0 0 0 0 0 0 0 0 0 0
2 2 2 2 1 1 1 1 2 3 2 2 3 2 2 2 1 1 2 2 1 1 1 1 1 0 1 0 0 0 0 0 0 0 0 0 0 0 0 0 0 0 0 0
2 2 2 2 2 1 0 1 2 2 3 3 3 3 3 2 2 2 2 1 1 1 1 1 1 1 1 1 1 0 0 0 0 0 0 0 0 0 0 0 0 0 0 0
2 2 2 1 2 1 1 1 1 2 2 2 2 3 3 2 1 1 1 2 2 2 1 1 2 2 1 1 1 1 0 0 0 0 0 0 0 0 0 0 0 0 0 0
2 2 2 3 3 2 2 2 2 2 2 1 1 2 2 2 2 1 2 2 2 1 1 2 2 2 1 1 1 1 0 0 0 0 0 0 1 1 1 1 1 0 0 0
2 2 2 3 3 2 2 2 2 2 2 2 1 1 1 1 1 1 1 2 2 2 1 1 1 1 1 1 1 1 0 1 1 1 1 1 1 1 1 1 1 1 1 1
2 2 2 1 1 2 3 3 3 3 2 3 2 1 2 2 2 2 2 1 1 1 1 1 1 1 1 1 1 0 0 0 1 1 1 1 1 1 1 1 1 1 1 1
Wind_Direction
269 280 271 259 253 236 230 239 249 270 279 286 291 303 317 335 345 347 344 335 330 327 325 324 320 322 320 317 323 321 320 325 314 315 309 297 289 279 245 237 235 228 214 225
271 261 265 269 258 244 244 247 255 273 279 286 297 321 330 327 329 330 323 321 321 327 323 320 320 316 313 313 316 317 310 307 317 326 323 312 299 294 292 253 227 207 197 199
271 285 299 265 235 221 229 229 234 252 265 294 310 313 302 299 313 305 313 320 320 317 313 308 306 305 301 302 314 328 319 323 341 343 332 325 319 343 307 253 220 170 167 150
279 309 252 244 209 204 225 239 234 250 272 288 293 298 295 295 316 315 322 319 317 316 315 312 311 314 310 317 326 326 326 331 345 350 327 322 325 322 310 274 173 145 143 140
239 261 270 265 252 212 213 259 234 248 275 297 317 317 295 333 341 321 321 319 317 323 322 321 318 313 323 329 334 333 327 329 330 326 317 316 310 293 332 51 54 79 98 105
232 248 255 253 134 20 79 273 278 267 288 319 347 316 294 330 340 346 351 347 339 335 333 329 323 329 337 332 330 318 320 325 331 335 329 318 317 338 40 74 70 71 61 66
229 245 261 247 167 94 180 259 321 329 304 313 283 271 294 324 332 338 338 337 343 339 331 323 329 339 331 328 313 319 336 348 352 352 340 332 347 9 42 52 52 55 59 51
204 230 252 173 136 187 228 288 324 319 306 293 291 301 315 322 327 335 339 341 346 343 333 331 336 340 331 329 335 352 0 1 349 348 341 348 11 19 39 61 65 45 58 51
206 224 239 174 204 226 242 273 283 298 303 293 292 294 306 313 319 327 332 332 341 338 327 331 343 346 333 332 349 354 3 354 339 342 346 1 38 39 30 37 68 50 63 60
259 260 255 243 246 246 239 250 267 271 276 279 276 284 291 298 305 314 319 323 330 326 317 320 334 341 336 338 349 354 346 335 339 8 15 21 33 47 43 35 56 75 79 75
255 267 276 253 239 236 234 252 270 278 287 270 265 276 278 284 291 298 309 311 312 304 301 308 323 330 338 345 354 352 338 350 25 36 35 27 24 24 21 22 30 68 72 88
239 241 238 259 245 219 221 239 240 248 274 278 253 261 276 280 280 284 290 299 309 307 304 309 323 332 340 349 350 347 339 350 29 40 46 51 47 34 32 29 26 39 47 45
242 259 260 272 267 232 227 235 237 235 241 260 262 252 263 276 281 285 288 294 298 300 303 309 321 328 341 348 352 344 335 342 10 23 33 43 51 63 49 36 31 34 42 48
245 251 264 263 258 244 228 226 228 252 253 246 251 252 257 269 284 283 282 287 293 300 304 309 314 321 340 350 351 345 347 350 2 14 15 19 32 40 62 79 54 30 29 41
237 232 237 254 259 253 228 210 223 247 249 253 245 239 242 256 268 276 287 303 313 311 309 315 319 324 349 357 354 347 348 6 20 19 14 14 24 42 52 67 67 50 47 40
235 227 225 232 237 235 225 219 224 239 239 238 234 235 241 248 263 280 289 290 290 287 292 302 305 322 350 356 351 351 353 357 10 20 23 30 38 40 42 57 59 51 39 32
211 225 226 230 233 233 227 223 223 229 230 225 226 222 224 247 274 279 286 290 273 267 274 283 298 330 344 353 353 339 353 1 0 17 20 13 32 43 42 48 51 42 26 11
222 226 221 218 220 227 233 226 220 219 218 217 202 193 207 221 243 264 287 307 322 315 305 293 311 339 356 12 11 350 342 344 3 31 20 17 19 38 39 40 36 35 28 16
225 221 221 219 216 216 225 222 216 207 201 186 187 206 217 227 236 248 264 256 251 276 294 285 298 28 32 349 359 350 336 340 6 25 30 327 355 26 43 32 15 18 28 27
214 204 199 204 201 203 212 213 201 197 193 179 182 195 215 229 220 215 220 237 246 255 253 258 177 127 290 296 338 337 294 298 13 30 21 7 350 358 13 17 21 20 28 22
205 194 192 200 211 212 206 197 186 191 189 177 182 199 214 222 201 185 201 258 280 218 191 202 135 147 281 297 302 0 266 283 6 212 284 329 348 341 337 342 348 342 5 18
204 197 204 198 191 220 209 170 169 172 175 183 185 184 188 206 204 212 229 234 236 188 156 170 158 212 243 248 98 91 36 33 23 27 3 274 233 224 247 264 272 294 325 289
205 199 198 195 188 187 128 151 167 171 181 188 189 190 196 207 197 197 241 236 192 197 162 172 207 208 186 123 106 103 77 57 13 353 312 277 275 268 266 279 279 270 247 238
199 193 189 169 140 147 191 202 167 165 170 182 194 195 188 188 211 219 205 190 186 182 175 194 200 189 151 110 118 120 116 120 322 325 301 296 292 275 273 273 279 287 282 285
195 188 178 172 181 198 195 170 148 158 163 178 200 205 202 193 196 194 169 178 187 167 164 195 189 174 127 115 133 152 175 213 233 234 243 257 266 266 268 265 260 262 278 282
196 194 198 202 202 187 170 168 177 181 172 179 196 189 174 162 157 156 156 164 169 175 168 163 161 155 134 133 141 152 180 275 296 298 289 277 271 265 268 269 266 260 262 267
188 185 179 192 210 189 177 179 185 193 188 182 187 181 164 157 154 156 156 155 160 165 159 146 141 150 156 149 145 159 229 272 278 277 274 277 270 264 268 263 256 253 256 254